User: anonymous   Login
Location: ??
(35.5052°N, 139.7262°E)
Time: 14:39:34
(UTC+00:00)
Language:

Cosmos 1464 Rocket - Orbit

View from above orbital plane
View from above orbital plane
View from above satellite
View from above satellite

Ground track
Ground track

The orbit data is extracted from the following two-line orbital elements,

1 14085U 83048B   21262.85744903  .00000042  00000-0  26720-4 0  9991
2 14085  82.9480  15.0439 0034772  76.0073 284.4946 13.76324719924363
Epoch (UTC): 19 September 2021 20:34:43
Eccentricity: 0.0034772
inclination: 82.9480°
perigee height: 951 km
apogee height: 1002 km
right ascension of ascending node: 15.0439°
argument of perigee: 76.0073°
revolutions per day: 13.76324719
mean anomaly at epoch: 284.4946°
orbit number at epoch: 92436

The dashed part of the orbit path shows where the satellite is in the earth's shadow,  

DLR